Regional Weather Roundup
Issued by NWS Cleveland, OH

Home | Current Version | Previous Version | Text Only | Print | Product List | Glossary Off
Versions: 1 2 3 4 5 6 7 8 9 10 11 12 13 14 15 16 17 18 19 20 21 22 23 24 25 26 27 28 29 30 31 32 33 34 35 36 37 38 39 40 41 42 43 44 45 46 47 48 49 50

000
ASUS41 KCLE 240700
RWRCLE
OHIO REGIONAL WEATHER ROUNDUP
NATIONAL WEATHER SERVICE WILMINGTON, OH
300 AM EDT MON JUL 24 2017

NOTE: "FAIR" INDICATES FEW OR NO CLOUDS BELOW 12,000 FEET WITH NO
SIGNIFICANT WEATHER AND/OR OBSTRUCTIONS TO VISIBILITY.

OHZ001>008-015>018-024>027-034-035-043-044-240800-
   NORTHWEST OHIO

CITY           SKY/WX    TMP DP  RH WIND       PRES   REMARKS
DEFIANCE       MOCLDY   N/A N/A N/A N5        29.82S
FINDLAY        MOCLDY    70  65  84 CALM      29.80F
TOLEDO EXPRESS CLOUDY    70  68  93 NW5       29.80S
TOLEDO EXEC    CLOUDY    71  70  96 CALM      29.81S
LIMA           MOCLDY    69  67  93 SW6       29.83S
$$

OHZ009>014-019>023-028>033-038-089-240800-
   NORTHEAST OHIO

CITY           SKY/WX    TMP DP  RH WIND       PRES   REMARKS
CLE-HOPKINS    MOCLDY    69  65  86 SW3       29.80F
CLE-LAKEFRONT  FAIR      71  65  81 SW8       29.77F
CUY CO. ARPT   NOT AVBL
LORAIN-ELYRIA  FAIR      66  61  84 CALM      29.80F
ASHTABULA      FAIR      67  67 100 SW3       29.77F
AKRON-CANTON   FAIR      68  64  87 W7        29.81F
WOOSTER        NOT AVBL
MANSFIELD      FAIR      67  65  93 SW7       29.82F
YOUNGSTOWN     FOG       68  67  96 SW3       29.79F VSB 1/4
$$

OHZ042-051>053-060>062-070>072-077>081-240800-
  SOUTHWEST OHIO

CITY           SKY/WX    TMP DP  RH WIND       PRES   REMARKS
CINC-COVINGTON FAIR      68  68 100 SW6       29.86F
CINC-LUNKEN    FAIR      68  68 100 S3        29.86S
HAMILTON       FAIR      67  67 100 CALM      29.85F
DAYTON         NOT AVBL
WRIGHT-PAT AFB FAIR      68  68  99 CALM      29.84S
DAYTON GENERAL FAIR      70  67  90 SW5       29.84F
WILMINGTON     FAIR      68  68 100 SW3       29.85S
$$

OHZ036-037-039>041-045>050-054>059-063>069-073>076-082>088-240800-
  CENTRAL AND SOUTHEAST OHIO

CITY           SKY/WX    TMP DP  RH WIND       PRES   REMARKS
COLUMBUS       FAIR      68  68 100 SW3       29.84R
OSU AIRPORT    FAIR      67  67 100 W5        29.83S
BOLTON FIELD   NOT AVBL
RICKENBACK AFB NOT AVBL
NEWARK         FAIR      67  65  93 CALM      29.83R
MARION         MOCLDY    66  64  93 SE3       29.83S
LANCASTER      FAIR      56  32  40 CALM      29.84S HAZE
ZANESVILLE     CLOUDY    67  65  93 S3        29.82F
NEW PHILLY     CLOUDY    67  67 100 CALM      29.82F FOG
$$




USA.gov is the U.S. government's official web portal to all federal, state and local government web resources and services.